Regional Weather Roundup
Issued by NWS

Home | Current Version | Previous Version | Text Only | Print | Product List | Glossary Off
Versions: 1 2 3 4 5 6 7 8 9 10 11 12 13 14 15 16 17 18 19 20 21 22 23 24 25 26 27 28 29 30 31 32 33 34 35 36 37 38 39 40 41 42 43 44 45 46 47 48 49 50

000
ASUS45 KCYS 301910
RWRWY

WYOMING REGIONAL WEATHER ROUNDUP
NATIONAL WEATHER SERVICE CHEYENNE WY
100 PM MDT SAT APR 30 2016

NOTE:  "FAIR" INDICATES FEW OR NO CLOUDS BELOW 12,000 FEET
WITH NO SIGNIFICANT WEATHER AND/OR OBSTRUCTIONS TO VISIBILITY.

WYZ001-302000-
YELLOWSTONE NATIONAL PARK

CITY           SKY/WX    TMP DP  RH WIND       PRES   REMARKS
LK YELLOWSTONE   N/A     41  22  46 VRB6      30.10R
W YELLOWSTONE  NOT AVBL

$$
WYZ002>013-054>058-071-098>099-302000-
NORTHERN WYOMING

CITY           SKY/WX    TMP DP  RH WIND       PRES   REMARKS
JACKSON        NOT AVBL
CODY           CLOUDY    45  34  65 N16G23    30.13R
GREYBULL       CLOUDY    56  30  37 VRB6      30.05S
WORLAND        LGT RAIN  49  39  68 NW7       30.09R
SHERIDAN       CLOUDY    44  36  73 CALM      30.19R
BUFFALO          N/A    N/A N/A N/A MISG      30.17S
GILLETTE       PTSUNNY   46  34  62 NE15      30.14R
HULETT         CLOUDY    46  32  57 NE15G22   30.14S
NEWCASTLE      CLOUDY    41  30  65 N7        30.10F

$$
WYZ014>020-022>026-101>103-302000-
CENTRAL WYOMING

CITY           SKY/WX    TMP DP  RH WIND       PRES   REMARKS
BIG PINEY      CLOUDY    42  29  59 S3        30.04R
PINEDALE       MOCLDY    45  28  53 N14G24    30.03S
DUBOIS         LGT RAIN  37  32  81 SE17G23   30.07R WCI  28
LANDER         LGT RAIN  37  34  89 E10       30.10R FOG     WCI  30
RIVERTON       LGT RAIN  37  34  89 SE9       30.11S WCI  30
CASPER         LGT SNOW  34  32  92 E10       30.09S FOG     WCI  26
DOUGLAS        CLOUDY    37  34  89 N6        30.10S WCI  32

$$
WYZ021-027>030-104>119-302000-
SOUTHERN WYOMING

CITY           SKY/WX    TMP DP  RH WIND       PRES   REMARKS
EVANSTON       CLOUDY    41  26  55 E14G25    30.02F
KEMMERER         N/A     39  30  70 E6        30.04F WCI  35
FORT BRIDGER   LGT SNOW  37  37 100 SE9       30.07S WCI  31
ROCK SPRINGS   CLOUDY    38  31  76 NE23G36   30.04S WCI  27
DIXON          CLOUDY    42  25  50 NE24      30.00R
RAWLINS        CLOUDY    35  31  85 NE10      30.04R FOG     WCI  27
SARATOGA       LGT SNOW  32  32 100 N8        30.03R WCI  25
LARAMIE        LGT SNOW  29  25  85 N12       30.01R FOG     WCI  19
CHEYENNE       LGT SNOW  32  29  88 N18G31    29.98S VSB 3/4 WCI  20
TORRINGTON     LGT RAIN  37  34  89 N16G26    30.02S WCI  28
PINE BLUFFS    LGT SNOW  32  32 100 N23G30    29.97S WCI  19

$$



USA.gov is the U.S. government's official web portal to all federal, state and local government web resources and services.